RWZ3004 LTBS-URSS

Flight info

Callsign RWZ3004
Flight time 1h 37m
Altitude 35000
Route RIVBU UN136 KFK UR32 BAG UT61 SIN DCT ODIRA/K0837F350 G487 DIRUN
Aircraft A21N/M-SDE3FGHIRWY/LB1

Departure

Time 2026-04-21 17:18
Airport Dalaman International Airport (LTBS)

Arrival

Time 2026-04-21 18:55
Airport Sochi International Airport (URSS)
Time Latitude Longitude Altitude Speed Heading
2026-04-21 16:43 36.72456 28.79111 28 ft 0 kts 285°
2026-04-21 17:09 36.72456 28.79112 28 ft 1 kts 285°
2026-04-21 17:10 36.72452 28.79129 28 ft 2 kts 285°
2026-04-21 17:10 36.72449 28.79147 28 ft 2 kts 285°
2026-04-21 17:10 36.72445 28.79165 28 ft 2 kts 285°
2026-04-21 17:10 36.72439 28.79183 28 ft 2 kts 310°
2026-04-21 17:11 36.72428 28.79195 28 ft 2 kts 335°
2026-04-21 17:11 36.72413 28.79199 28 ft 2 kts
2026-04-21 17:11 36.72405 28.79198 28 ft 1 kts 18°
2026-04-21 17:11 36.72400 28.79196 28 ft 0 kts 16°
2026-04-21 17:14 36.72413 28.79200 28 ft 4 kts 15°
2026-04-21 17:14 36.72469 28.79219 28 ft 11 kts 15°
2026-04-21 17:14 36.72567 28.79252 28 ft 16 kts 15°
2026-04-21 17:15 36.72677 28.79305 28 ft 18 kts 59°
2026-04-21 17:15 36.72666 28.79451 28 ft 17 kts 105°
2026-04-21 17:15 36.72648 28.79539 28 ft 0 kts 105°
2026-04-21 17:16 36.72648 28.79540 28 ft 0 kts 105°
2026-04-21 17:16 36.72645 28.79552 28 ft 2 kts 105°
2026-04-21 17:16 36.72632 28.79602 28 ft 11 kts 114°
2026-04-21 17:17 36.72529 28.79660 28 ft 24 kts 187°
2026-04-21 17:17 36.72221 28.79563 28 ft 79 kts 195°
2026-04-21 17:17 36.71463 28.79304 28 ft 143 kts 195°
2026-04-21 17:17 36.70386 28.78950 305 ft 166 kts 195°
2026-04-21 17:18 36.69273 28.78576 903 ft 169 kts 196°
2026-04-21 17:18 36.68089 28.78163 1325 ft 186 kts 196°
2026-04-21 17:18 36.66789 28.77710 1774 ft 203 kts 196°
2026-04-21 17:18 36.65374 28.77221 2228 ft 221 kts 195°
2026-04-21 17:19 36.63818 28.76691 2624 ft 244 kts 196°
2026-04-21 17:19 36.62125 28.76115 3195 ft 259 kts 196°
2026-04-21 17:19 36.60379 28.75520 4001 ft 265 kts 196°
2026-04-21 17:19 36.58593 28.74950 4834 ft 269 kts 190°
2026-04-21 17:20 36.56728 28.75155 5588 ft 274 kts 158°
2026-04-21 17:20 36.55203 28.76525 6378 ft 277 kts 128°
2026-04-21 17:20 36.54367 28.78670 7133 ft 279 kts 104°
2026-04-21 17:20 36.53900 28.81025 7906 ft 282 kts 104°
2026-04-21 17:21 36.53413 28.83375 8674 ft 284 kts 105°
2026-04-21 17:21 36.52922 28.85652 9329 ft 289 kts 105°
2026-04-21 17:21 36.52391 28.88060 9991 ft 293 kts 105°
2026-04-21 17:21 36.51903 28.90553 10586 ft 299 kts 96°
2026-04-21 17:22 36.52083 28.93141 10924 ft 312 kts 71°
2026-04-21 17:22 36.53124 28.95513 10992 ft 320 kts 47°
2026-04-21 17:22 36.54949 28.97242 10993 ft 343 kts 24°
2026-04-21 17:22 36.57306 28.98134 11012 ft 366 kts 13°
2026-04-21 17:23 36.59812 28.98969 10995 ft 380 kts 17°
2026-04-21 17:23 36.62172 29.00576 11035 ft 391 kts 38°
2026-04-21 17:23 36.64171 29.02816 11690 ft 394 kts 43°
2026-04-21 17:23 36.66167 29.05190 12379 ft 395 kts 42°
2026-04-21 17:24 36.68177 29.07538 12964 ft 400 kts 41°
2026-04-21 17:24 36.70216 29.09860 13511 ft 404 kts 40°
2026-04-21 17:24 36.72306 29.12197 14096 ft 407 kts 39°
2026-04-21 17:24 36.74430 29.14548 14645 ft 411 kts 39°
2026-04-21 17:25 36.76600 29.16940 15202 ft 415 kts 39°
2026-04-21 17:25 36.78766 29.19325 15730 ft 419 kts 39°
2026-04-21 17:25 36.80955 29.21734 16246 ft 422 kts 39°
2026-04-21 17:25 36.83160 29.24163 16754 ft 426 kts 39°
2026-04-21 17:26 36.85377 29.26609 17244 ft 429 kts 39°
2026-04-21 17:26 36.87579 29.29124 17721 ft 433 kts 40°
2026-04-21 17:26 36.89785 29.31690 18189 ft 436 kts 40°
2026-04-21 17:26 36.92006 29.34269 18674 ft 439 kts 40°
2026-04-21 17:27 36.94276 29.36898 19128 ft 442 kts 39°
2026-04-21 17:27 36.96529 29.39510 19592 ft 445 kts 39°
2026-04-21 17:27 36.98799 29.42144 20024 ft 448 kts 39°
2026-04-21 17:27 37.01082 29.44796 20454 ft 450 kts 39°
2026-04-21 17:28 37.03383 29.47472 20890 ft 453 kts 39°
2026-04-21 17:28 37.05690 29.50158 21307 ft 456 kts 39°
2026-04-21 17:28 37.08015 29.52869 21711 ft 459 kts 39°
2026-04-21 17:28 37.10325 29.55561 22110 ft 461 kts 39°
2026-04-21 17:29 37.12683 29.58311 22511 ft 463 kts 39°
2026-04-21 17:29 37.15046 29.61067 22910 ft 466 kts 39°
2026-04-21 17:29 37.17424 29.63845 23282 ft 468 kts 39°
2026-04-21 17:29 37.19810 29.66635 23651 ft 470 kts 40°
2026-04-21 17:30 37.22205 29.69440 24100 ft 470 kts 40°
2026-04-21 17:30 37.24572 29.72214 24638 ft 468 kts 40°
2026-04-21 17:30 37.26946 29.74995 25140 ft 466 kts 39°
2026-04-21 17:30 37.29320 29.77776 25589 ft 466 kts 39°
2026-04-21 17:31 37.31652 29.80512 26016 ft 465 kts 39°
2026-04-21 17:31 37.33928 29.83186 26423 ft 464 kts 39°
2026-04-21 17:31 37.36265 29.85935 26837 ft 464 kts 39°
2026-04-21 17:31 37.38622 29.88711 27243 ft 463 kts 39°
2026-04-21 17:32 37.40970 29.91478 27649 ft 462 kts 39°
2026-04-21 17:32 37.43281 29.94207 28038 ft 461 kts 39°
2026-04-21 17:32 37.45620 29.96973 28423 ft 461 kts 39°
2026-04-21 17:32 37.47949 29.99729 28795 ft 460 kts 39°
2026-04-21 17:33 37.50286 30.02497 29176 ft 459 kts 39°
2026-04-21 17:33 37.52581 30.05216 29566 ft 458 kts 39°
2026-04-21 17:33 37.54909 30.07974 29936 ft 457 kts 39°
2026-04-21 17:33 37.57231 30.10722 30257 ft 457 kts 38°
2026-04-21 17:34 37.59536 30.13453 30575 ft 456 kts 38°
2026-04-21 17:34 37.61842 30.16191 30894 ft 455 kts 38°
2026-04-21 17:34 37.64142 30.18926 31196 ft 455 kts 38°
2026-04-21 17:34 37.66413 30.21629 31473 ft 455 kts 38°
2026-04-21 17:35 37.68725 30.24385 31750 ft 455 kts 38°
2026-04-21 17:35 37.71008 30.27107 32002 ft 455 kts 38°
2026-04-21 17:35 37.73316 30.29864 32244 ft 455 kts 38°
2026-04-21 17:35 37.75602 30.32598 32500 ft 455 kts 38°
2026-04-21 17:36 37.77881 30.35328 32748 ft 454 kts 38°
2026-04-21 17:36 37.80184 30.38089 32992 ft 454 kts 38°
2026-04-21 17:36 37.82462 30.40819 33207 ft 454 kts 38°
2026-04-21 17:36 37.84771 30.43585 33399 ft 455 kts 38°
2026-04-21 17:37 37.87045 30.46310 33572 ft 456 kts 38°
2026-04-21 17:37 37.89363 30.49088 33719 ft 457 kts 38°
2026-04-21 17:37 37.91664 30.51854 33887 ft 458 kts 38°
2026-04-21 17:37 37.93979 30.54642 34059 ft 459 kts 38°
2026-04-21 17:38 37.96267 30.57402 34226 ft 460 kts 38°
2026-04-21 17:38 37.98579 30.60191 34363 ft 461 kts 38°
2026-04-21 17:38 38.00913 30.63007 34516 ft 461 kts 38°
2026-04-21 17:38 38.03243 30.65815 34657 ft 462 kts 38°
2026-04-21 17:39 38.05558 30.68613 34766 ft 463 kts 38°
2026-04-21 17:39 38.07881 30.71423 34888 ft 463 kts 38°
2026-04-21 17:39 38.10197 30.74231 35002 ft 463 kts 38°
2026-04-21 17:39 38.12523 30.77054 35028 ft 465 kts 38°
2026-04-21 17:40 38.17212 30.82746 35039 ft 466 kts 38°
2026-04-21 17:40 38.21901 30.88437 35035 ft 466 kts 38°
2026-04-21 17:41 38.26555 30.94105 35036 ft 467 kts 38°
2026-04-21 17:41 38.31244 30.99836 35034 ft 466 kts 38°
2026-04-21 17:42 38.35908 31.05547 35027 ft 466 kts 38°
2026-04-21 17:42 38.40562 31.11251 35024 ft 466 kts 38°
2026-04-21 17:43 38.45203 31.16933 35021 ft 465 kts 38°
2026-04-21 17:43 38.49861 31.22652 35021 ft 465 kts 38°
2026-04-21 17:44 38.54520 31.28390 35008 ft 466 kts 38°
2026-04-21 17:44 38.59181 31.34146 35003 ft 465 kts 38°
2026-04-21 17:45 38.63797 31.39859 35005 ft 465 kts 38°
2026-04-21 17:45 38.68450 31.45625 35005 ft 465 kts 38°
2026-04-21 17:46 38.73069 31.51361 35011 ft 466 kts 38°
2026-04-21 17:46 38.77703 31.57125 35012 ft 467 kts 38°
2026-04-21 17:47 38.82348 31.62918 34997 ft 466 kts 38°
2026-04-21 17:47 38.86971 31.68690 34999 ft 466 kts 39°
2026-04-21 17:48 38.91591 31.74472 34991 ft 465 kts 39°
2026-04-21 17:48 38.96222 31.80281 34991 ft 466 kts 39°
2026-04-21 17:49 39.00845 31.86092 34998 ft 466 kts 39°
2026-04-21 17:49 39.05478 31.91933 35003 ft 466 kts 39°
2026-04-21 17:50 39.10078 31.97738 34997 ft 465 kts 39°
2026-04-21 17:50 39.14704 32.03567 34986 ft 465 kts 39°
2026-04-21 17:51 39.19310 32.09392 34992 ft 465 kts 39°
2026-04-21 17:51 39.23904 32.15218 34987 ft 465 kts 39°
2026-04-21 17:52 39.28533 32.21103 34990 ft 467 kts 39°
2026-04-21 17:52 39.33139 32.26976 34999 ft 466 kts 39°
2026-04-21 17:53 39.37722 32.32831 34986 ft 465 kts 39°
2026-04-21 17:53 39.42297 32.38679 34985 ft 465 kts 39°
2026-04-21 17:54 39.46770 32.44408 34988 ft 464 kts 39°
2026-04-21 17:54 39.51302 32.50209 34995 ft 464 kts 39°
2026-04-21 17:55 39.55875 32.56076 34990 ft 464 kts 39°
2026-04-21 17:55 39.60449 32.61969 34987 ft 464 kts 39°
2026-04-21 17:56 39.65011 32.67860 34985 ft 464 kts 40°
2026-04-21 17:56 39.69581 32.73771 34985 ft 463 kts 40°
2026-04-21 17:57 39.74142 32.79684 34986 ft 463 kts 39°
2026-04-21 17:57 39.78692 32.85593 34984 ft 464 kts 39°
2026-04-21 17:58 39.83246 32.91523 34984 ft 466 kts 40°
2026-04-21 17:58 39.87793 32.97462 34982 ft 466 kts 39°
2026-04-21 17:59 39.92350 33.03415 34983 ft 464 kts 39°
2026-04-21 17:59 39.96896 33.09346 34985 ft 464 kts 39°
2026-04-21 18:00 40.01464 33.15328 34980 ft 465 kts 39°
2026-04-21 18:00 40.05997 33.21278 34975 ft 465 kts 39°
2026-04-21 18:01 40.10555 33.27277 34972 ft 465 kts 40°
2026-04-21 18:01 40.15085 33.33257 34975 ft 465 kts 40°
2026-04-21 18:02 40.19621 33.39254 34962 ft 464 kts 40°
2026-04-21 18:02 40.24141 33.45244 34965 ft 465 kts 39°
2026-04-21 18:03 40.28674 33.51259 34963 ft 464 kts 40°
2026-04-21 18:03 40.33185 33.57259 34970 ft 465 kts 40°
2026-04-21 18:04 40.37706 33.63284 34964 ft 465 kts 40°
2026-04-21 18:04 40.42222 33.69314 34968 ft 465 kts 40°
2026-04-21 18:05 40.46767 33.75396 34969 ft 465 kts 40°
2026-04-21 18:05 40.51261 33.81425 34964 ft 465 kts 40°
2026-04-21 18:06 40.55767 33.87479 34971 ft 465 kts 40°
2026-04-21 18:06 40.60283 33.93562 34968 ft 464 kts 40°
2026-04-21 18:07 40.64774 33.99623 34968 ft 464 kts 40°
2026-04-21 18:07 40.69281 34.05714 34967 ft 463 kts 40°
2026-04-21 18:08 40.73753 34.11775 34970 ft 462 kts 41°
2026-04-21 18:08 40.78197 34.17808 34960 ft 463 kts 41°
2026-04-21 18:09 40.82661 34.23881 34959 ft 462 kts 41°
2026-04-21 18:09 40.87145 34.29995 34950 ft 461 kts 41°
2026-04-21 18:10 40.91583 34.36061 34951 ft 460 kts 41°
2026-04-21 18:10 40.96003 34.42117 34953 ft 459 kts 41°
2026-04-21 18:11 41.00415 34.48177 34951 ft 459 kts 41°
2026-04-21 18:11 41.04830 34.54252 34948 ft 459 kts 41°
2026-04-21 18:12 41.09259 34.60346 34951 ft 459 kts 41°
2026-04-21 18:12 41.13684 34.66442 34955 ft 460 kts 41°
2026-04-21 18:13 41.18072 34.72510 34951 ft 460 kts 42°
2026-04-21 18:13 41.22501 34.78653 34957 ft 460 kts 42°
2026-04-21 18:14 41.29115 34.87857 34956 ft 459 kts 42°
2026-04-21 18:15 41.33509 34.93963 34965 ft 459 kts 41°
2026-04-21 18:15 41.37911 35.00097 34965 ft 459 kts 42°
2026-04-21 18:16 41.42318 35.06261 34963 ft 460 kts 42°
2026-04-21 18:16 41.46727 35.12442 34960 ft 462 kts 41°
2026-04-21 18:17 41.51123 35.18619 34959 ft 462 kts 42°
2026-04-21 18:17 41.55545 35.24848 34957 ft 462 kts 42°
2026-04-21 18:18 41.59936 35.31048 34955 ft 462 kts 42°
2026-04-21 18:18 41.64348 35.37290 34960 ft 463 kts 41°
2026-04-21 18:19 41.68756 35.43544 34961 ft 464 kts 42°
2026-04-21 18:19 41.73198 35.49842 34956 ft 464 kts 41°
2026-04-21 18:20 41.77615 35.56074 34962 ft 465 kts 42°
2026-04-21 18:20 41.82058 35.62370 34959 ft 465 kts 41°
2026-04-21 18:21 41.86415 35.68561 34955 ft 467 kts 42°
2026-04-21 18:21 41.90837 35.74863 34962 ft 467 kts 42°
2026-04-21 18:22 41.95301 35.81235 34975 ft 469 kts 42°
2026-04-21 18:22 41.99748 35.87600 34981 ft 470 kts 42°
2026-04-21 18:23 42.04192 35.93975 34985 ft 470 kts 43°
2026-04-21 18:23 42.08671 36.00418 34982 ft 470 kts 42°
2026-04-21 18:24 42.12988 36.06638 34982 ft 470 kts 42°
2026-04-21 18:24 42.17428 36.13051 34978 ft 470 kts 42°
2026-04-21 18:25 42.21872 36.19480 34976 ft 471 kts 43°
2026-04-21 18:25 42.26280 36.25872 34975 ft 471 kts 43°
2026-04-21 18:26 42.30733 36.32348 34973 ft 472 kts 43°
2026-04-21 18:26 42.35177 36.38821 34966 ft 474 kts 42°
2026-04-21 18:27 42.39635 36.45334 34971 ft 473 kts 42°
2026-04-21 18:27 42.43992 36.51710 34968 ft 479 kts 42°
2026-04-21 18:28 42.48535 36.58371 34965 ft 486 kts 43°
2026-04-21 18:28 42.53143 36.65144 34965 ft 490 kts 43°
2026-04-21 18:29 42.57761 36.71961 34965 ft 491 kts 43°
2026-04-21 18:29 42.62286 36.78657 34964 ft 492 kts 43°
2026-04-21 18:30 42.66840 36.85600 34878 ft 493 kts 47°
2026-04-21 18:30 42.68834 36.89147 34663 ft 484 kts 51°
2026-04-21 18:30 42.70676 36.92902 34434 ft 477 kts 54°
2026-04-21 18:30 42.72347 36.96828 34200 ft 479 kts 58°
2026-04-21 18:31 42.73825 37.00865 33865 ft 482 kts 62°
2026-04-21 18:31 42.75158 37.05061 33404 ft 485 kts 64°
2026-04-21 18:31 42.76447 37.09302 32821 ft 486 kts 64°
2026-04-21 18:31 42.77724 37.13542 32182 ft 488 kts 64°
2026-04-21 18:32 42.79008 37.17796 31502 ft 490 kts 63°
2026-04-21 18:32 42.80310 37.22094 30876 ft 489 kts 63°
2026-04-21 18:32 42.81592 37.26314 30368 ft 485 kts 63°
2026-04-21 18:32 42.82876 37.30538 29881 ft 480 kts 63°
2026-04-21 18:33 42.84150 37.34727 29419 ft 476 kts 63°
2026-04-21 18:33 42.85419 37.38898 28954 ft 493 kts 63°
2026-04-21 18:33 42.86681 37.43044 28473 ft 501 kts 64°
2026-04-21 18:33 42.88006 37.47427 27987 ft 499 kts 64°
2026-04-21 18:34 42.89319 37.51785 27486 ft 497 kts 64°
2026-04-21 18:34 42.90610 37.56083 27002 ft 493 kts 64°
2026-04-21 18:34 42.91905 37.60393 26512 ft 489 kts 64°
2026-04-21 18:34 42.93213 37.64745 26020 ft 502 kts 64°
2026-04-21 18:35 42.94093 37.67674 25677 ft 506 kts 65°
2026-04-21 18:35 42.95859 37.73584 24987 ft 504 kts 65°
2026-04-21 18:35 42.97164 37.77964 24485 ft 500 kts 65°
2026-04-21 18:35 42.98474 37.82362 23972 ft 508 kts 66°
2026-04-21 18:36 42.99808 37.86856 23440 ft 507 kts 66°
2026-04-21 18:36 43.01113 37.91283 22928 ft 503 kts 66°
2026-04-21 18:36 43.02408 37.95686 22411 ft 499 kts 66°
2026-04-21 18:36 43.03687 38.00039 21912 ft 496 kts 66°
2026-04-21 18:37 43.04953 38.04380 21392 ft 493 kts 66°
2026-04-21 18:37 43.06221 38.08749 20864 ft 490 kts 66°
2026-04-21 18:37 43.07462 38.13036 20346 ft 487 kts 67°
2026-04-21 18:37 43.08460 38.17267 19838 ft 486 kts 75°
2026-04-21 18:38 43.09016 38.21788 19346 ft 483 kts 83°
2026-04-21 18:38 43.09316 38.26339 18850 ft 480 kts 85°
2026-04-21 18:38 43.09557 38.30858 18358 ft 476 kts 86°
2026-04-21 18:38 43.09779 38.35182 17880 ft 473 kts 86°
2026-04-21 18:39 43.10012 38.39632 17388 ft 469 kts 85°
2026-04-21 18:39 43.10250 38.44019 16904 ft 465 kts 85°
2026-04-21 18:39 43.10493 38.48410 16416 ft 461 kts 85°
2026-04-21 18:39 43.10736 38.52752 15932 ft 457 kts 85°
2026-04-21 18:40 43.10977 38.57037 15446 ft 454 kts 85°
2026-04-21 18:40 43.11216 38.61320 14950 ft 449 kts 85°
2026-04-21 18:40 43.11373 38.64131 14570 ft 446 kts 85°
2026-04-21 18:40 43.11682 38.69726 13736 ft 441 kts 86°
2026-04-21 18:41 43.11910 38.73886 13113 ft 437 kts 86°
2026-04-21 18:41 43.12135 38.78009 12493 ft 433 kts 86°
2026-04-21 18:41 43.12353 38.82045 11903 ft 428 kts 85°
2026-04-21 18:41 43.12571 38.86091 11339 ft 423 kts 86°
2026-04-21 18:42 43.12781 38.90005 11073 ft 410 kts 86°
2026-04-21 18:42 43.12985 38.93836 10844 ft 397 kts 86°
2026-04-21 18:42 43.13179 38.97524 10626 ft 385 kts 86°
2026-04-21 18:42 43.13368 39.01133 10416 ft 373 kts 86°
2026-04-21 18:43 43.13549 39.04609 10343 ft 357 kts 86°
2026-04-21 18:43 43.13720 39.07899 10337 ft 340 kts 86°
2026-04-21 18:43 43.13881 39.11055 10309 ft 325 kts 86°
2026-04-21 18:43 43.14036 39.14104 10048 ft 319 kts 86°
2026-04-21 18:44 43.14186 39.17068 9748 ft 314 kts 86°
2026-04-21 18:44 43.14336 39.20035 9447 ft 310 kts 86°
2026-04-21 18:44 43.14482 39.22928 9129 ft 306 kts 86°
2026-04-21 18:44 43.14624 39.25725 8795 ft 303 kts 86°
2026-04-21 18:45 43.14798 39.28556 8461 ft 300 kts 82°
2026-04-21 18:45 43.15213 39.31346 8103 ft 298 kts 73°
2026-04-21 18:45 43.15813 39.34018 7760 ft 295 kts 71°
2026-04-21 18:45 43.16454 39.36678 7407 ft 293 kts 71°
2026-04-21 18:46 43.17088 39.39310 7052 ft 291 kts 71°
2026-04-21 18:46 43.17717 39.41959 6677 ft 290 kts 71°
2026-04-21 18:46 43.18328 39.44549 6336 ft 287 kts 71°
2026-04-21 18:46 43.18935 39.47134 6012 ft 284 kts 72°
2026-04-21 18:47 43.19532 39.49686 5664 ft 281 kts 72°
2026-04-21 18:47 43.20123 39.52215 5319 ft 279 kts 72°
2026-04-21 18:47 43.20708 39.54729 5005 ft 276 kts 73°
2026-04-21 18:47 43.21289 39.57222 4693 ft 271 kts 73°
2026-04-21 18:48 43.21857 39.59668 4470 ft 264 kts 73°
2026-04-21 18:48 43.22383 39.61942 4345 ft 254 kts 73°
2026-04-21 18:48 43.22872 39.64053 4223 ft 245 kts 73°
2026-04-21 18:48 43.23388 39.66275 4055 ft 244 kts 74°
2026-04-21 18:49 43.23900 39.68486 3886 ft 243 kts 74°
2026-04-21 18:49 43.24409 39.70684 3701 ft 242 kts 74°
2026-04-21 18:49 43.24741 39.72127 3481 ft 244 kts 74°
2026-04-21 18:49 43.25415 39.75052 3256 ft 235 kts 74°
2026-04-21 18:50 43.25896 39.77134 3170 ft 224 kts 74°
2026-04-21 18:50 43.26353 39.79121 3082 ft 218 kts 74°
2026-04-21 18:50 43.26819 39.81090 3002 ft 218 kts 69°
2026-04-21 18:50 43.27752 39.82730 2907 ft 222 kts 38°
2026-04-21 18:51 43.29068 39.83824 2838 ft 218 kts 28°
2026-04-21 18:51 43.30389 39.84704 2768 ft 205 kts 28°
2026-04-21 18:51 43.31636 39.85564 2579 ft 195 kts 30°
2026-04-21 18:51 43.32817 39.86433 2303 ft 189 kts 31°
2026-04-21 18:52 43.33951 39.87294 2040 ft 183 kts 31°
2026-04-21 18:52 43.35042 39.88125 1789 ft 173 kts 31°
2026-04-21 18:52 43.36035 39.88878 1594 ft 156 kts 31°
2026-04-21 18:52 43.36948 39.89568 1381 ft 145 kts 31°
2026-04-21 18:53 43.37834 39.90239 1219 ft 144 kts 31°
2026-04-21 18:53 43.38702 39.90895 1053 ft 143 kts 31°
2026-04-21 18:53 43.39572 39.91553 879 ft 142 kts 31°
2026-04-21 18:53 43.40435 39.92203 703 ft 141 kts 30°
2026-04-21 18:54 43.41304 39.92858 520 ft 140 kts 30°
2026-04-21 18:54 43.42159 39.93500 340 ft 139 kts 30°
2026-04-21 18:54 43.43007 39.94140 162 ft 137 kts 30°
2026-04-21 18:54 43.43819 39.94754 49 ft 124 kts 29°
2026-04-21 18:55 43.44263 39.95087 57 ft 95 kts 28°
2026-04-21 18:55 43.44837 39.95518 64 ft 39 kts 29°
2026-04-21 18:55 43.44962 39.95575 67 ft 14 kts 340°
2026-04-21 18:55 43.45055 39.95512 68 ft 14 kts 322°
2026-04-21 18:56 43.45090 39.95437 67 ft 6 kts 295°
2026-04-21 18:56 43.45093 39.95428 67 ft 0 kts 295°
2026-04-21 18:56 43.45096 39.95418 67 ft 2 kts 284°
2026-04-21 18:56 43.45092 39.95368 66 ft 9 kts 255°
2026-04-21 18:57 43.45056 39.95252 63 ft 17 kts 245°
2026-04-21 18:57 43.45011 39.95122 60 ft 13 kts 244°
2026-04-21 18:57 43.44957 39.95021 60 ft 13 kts 243°
2026-04-21 18:57 43.44913 39.94891 57 ft 16 kts 245°
2026-04-21 18:58 43.44868 39.94759 58 ft 14 kts 245°
2026-04-21 18:58 43.44834 39.94623 57 ft 15 kts 249°
2026-04-21 18:58 43.44781 39.94495 56 ft 15 kts 236°
2026-04-21 18:58 43.44734 39.94365 56 ft 15 kts 246°
2026-04-21 18:59 43.44686 39.94225 55 ft 12 kts 245°
2026-04-21 18:59 43.44649 39.94117 53 ft 9 kts 245°
2026-04-21 18:59 43.44673 39.94054 54 ft 7 kts 333°
2026-04-21 18:59 43.44701 39.94036 55 ft 0 kts 335°
2026-04-21 19:00 43.44702 39.94036 55 ft 0 kts 335°
2026-04-21 19:00 43.44703 39.94035 55 ft 0 kts 335°